Wind_Gust
17 16 15 15 15 15 14 12 9 12 12 13 14 15 15 15 17 16 17 20 21 21 22 23 24 22 22 21 21 21 20 20 20 20 23 21 22 23 23 24 26 27 25 25 25 24 26 29 29 29 26 25 26 25 26 26 25 26 26 26 27 26 27 28 31 29 25 20 21 21 21 21 25 25 24 23 22 25 20 22 22 23 25 25 25
17 16 15 15 15 15 15 13 12 11 10 11 14 15 16 16 15 16 17 18 18 20 21 21 21 22 22 24 23 23 23 24 22 22 23 23 22 22 22 25 25 26 24 26 26 26 25 28 29 28 26 28 26 27 26 26 26 27 27 28 28 27 26 30 31 29 28 21 22 21 22 23 26 25 25 24 23 22 26 24 24 24 25 25 24
17 16 15 15 15 13 13 14 15 14 13 10 11 14 15 14 15 16 17 17 17 19 20 20 19 20 20 21 22 22 23 24 22 22 22 23 24 22 21 22 24 26 26 27 28 27 26 27 29 27 25 25 27 26 25 26 26 27 27 26 26 26 26 27 30 32 28 26 22 24 23 23 26 26 26 24 22 23 25 26 25 25 23 24 26
18 17 16 16 16 15 15 14 14 14 13 12 12 12 11 12 13 14 15 15 16 16 17 19 19 20 20 21 22 22 24 23 23 23 24 23 23 24 23 22 24 25 26 27 27 26 27 27 28 28 25 25 27 26 26 26 27 27 26 27 27 28 27 26 29 31 31 30 25 28 24 24 27 26 25 20 22 22 22 21 22 23 22 24 25
18 18 17 16 16 17 16 15 14 14 14 14 14 13 12 12 10 10 11 13 14 13 14 15 17 21 22 22 22 23 23 24 24 24 22 21 23 24 23 24 24 25 27 28 22 26 27 28 28 26 25 27 26 26 26 25 28 28 28 29 29 28 27 28 30 30 31 33 31 28 26 26 26 25 24 24 23 23 21 24 24 24 23 23 23
19 18 17 16 16 16 16 15 15 14 14 13 13 13 14 13 13 12 11 13 13 14 16 16 16 20 21 21 21 21 22 23 23 24 23 22 23 22 24 24 25 27 27 27 27 26 27 29 28 26 26 27 28 27 26 26 27 28 28 29 29 27 28 28 29 29 31 33 30 32 27 30 27 26 23 24 23 24 23 23 23 24 25 24 24
19 18 17 16 16 16 16 16 15 14 14 14 13 13 13 13 13 14 13 12 11 13 13 15 16 18 18 18 20 20 20 21 21 21 22 22 22 23 23 24 25 25 26 28 27 27 28 29 29 28 28 29 29 29 28 26 27 28 28 30 29 26 29 31 31 31 31 32 32 30 30 28 26 27 24 23 24 25 24 22 25 26 26 27 26
17 17 17 16 16 16 16 15 15 15 14 14 14 14 14 13 13 13 12 13 12 13 12 12 14 15 16 17 18 17 18 20 22 21 21 22 22 22 24 24 25 25 25 27 26 27 28 29 29 29 29 30 30 30 28 29 28 28 30 29 28 27 29 29 28 28 28 29 31 30 30 29 25 25 25 22 25 27 29 28 27 27 27 26 27
17 17 17 17 17 16 15 14 14 15 15 15 14 15 14 14 14 14 13 12 11 13 13 13 13 14 14 15 18 18 18 19 19 19 20 21 21 22 24 26 26 26 27 28 27 26 27 28 29 30 31 24 23 21 20 18 28 30 30 28 29 29 28 27 28 28 27 29 30 28 29 28 28 25 25 26 30 32 29 26 26 24 25 25 25
17 17 16 16 16 17 17 15 16 15 16 16 15 15 15 15 14 14 14 13 13 13 14 15 15 15 16 15 14 14 16 17 12 15 14 18 20 22 24 24 25 26 26 27 27 26 27 28 29 23 23 24 23 22 21 20 21 26 30 29 30 30 31 29 29 29 29 29 31 30 29 31 29 27 29 29 26 22 21 25 27 25 25 25 24
17 17 17 16 16 16 16 16 16 16 16 15 15 16 16 16 15 15 15 14 14 14 14 15 16 16 17 17 15 15 14 13 11 15 16 18 19 21 22 23 23 24 25 26 27 28 27 27 28 24 23 21 27 24 22 23 22 23 24 22 20 31 31 32 32 29 32 33 31 31 31 31 31 29 29 29 27 28 27 26 26 24 27 26 30
18 17 17 17 17 17 16 16 16 16 16 17 16 16 16 16 15 15 15 15 15 15 16 17 16 16 17 18 17 17 16 8 12 13 14 16 14 19 21 23 23 24 24 25 27 27 27 28 26 27 28 28 29 26 25 24 25 26 26 25 24 26 24 30 32 33 32 33 34 32 31 32 33 30 31 30 31 28 28 26 28 27 27 28 28
17 17 18 18 18 18 18 17 17 17 17 18 17 17 17 17 16 16 17 17 17 18 17 16 17 18 18 19 19 18 18 8 12 13 14 14 15 15 18 22 23 20 21 25 26 28 28 29 29 29 29 21 27 30 30 28 23 28 27 27 27 26 26 29 28 36 32 35 34 33 34 31 32 32 29 30 27 29 29 33 29 29 29 29 28
17 18 17 18 18 18 18 18 18 19 19 19 18 18 19 19 18 19 20 19 20 20 20 21 21 21 20 19 19 19 19 11 12 13 13 14 14 13 16 19 21 22 23 23 23 23 25 28 30 30 29 28 29 30 30 32 30 26 26 26 29 30 27 29 29 31 31 34 37 39 32 32 36 30 27 25 31 34 33 33 29 29 30 33 27
17 18 18 18 18 18 19 18 20 20 20 20 19 19 19 19 19 20 20 20 21 22 21 20 20 20 21 22 21 20 19 12 14 14 14 14 14 11 17 18 20 21 23 23 24 25 25 26 26 28 27 28 30 28 31 32 31 33 31 28 28 28 30 31 31 31 31 34 41 42 40 35 36 34 32 32 31 32 32 31 31 30 29 24 23
18 18 18 18 19 19 19 20 21 21 21 21 20 20 20 20 21 21 20 21 20 21 22 22 22 22 21 21 22 22 20 12 14 15 16 15 15 16 19 20 21 22 23 23 24 25 26 27 27 28 28 29 23 22 26 32 33 34 37 35 35 33 34 27 28 31 35 37 40 43 42 39 27 32 28 30 31 28 26 27 30 29 29 30 31
19 18 18 19 19 19 19 21 21 21 21 21 22 21 22 22 21 21 21 21 21 21 21 21 21 21 21 21 21 22 20 14 13 15 15 17 13 18 18 20 21 22 24 24 25 25 26 26 28 29 29 30 22 22 22 22 30 37 38 37 36 35 38 34 26 28 29 31 32 30 31 30 28 27 26 25 22 23 28 29 29 28 32 32 29
19 19 19 19 19 19 20 21 21 21 21 22 22 22 23 23 22 21 22 23 23 22 22 23 22 21 21 21 22 21 21 17 17 16 17 17 14 19 20 20 20 21 23 23 24 26 26 24 25 31 31 31 21 24 23 22 28 34 36 37 38 39 37 36 33 28 27 31 32 33 32 30 30 31 28 25 24 19 33 36 32 32 32 29 37
19 20 20 19 19 20 21 21 21 21 22 21 21 22 23 23 22 21 21 21 23 22 21 21 21 20 20 21 15 21 24 19 17 18 19 19 19 19 21 22 23 24 23 25 24 26 27 23 25 30 31 29 23 22 23 21 31 33 34 34 38 38 38 31 35 35 29 24 26 26 28 27 32 29 28 30 29 24 32 36 34 37 40 36 37
19 19 19 18 18 21 20 20 20 21 21 21 21 22 21 22 21 21 21 21 22 22 21 21 22 22 19 19 22 21 23 24 20 18 18 19 19 21 22 24 29 30 31 31 30 27 28 29 26 25 29 29 29 28 26 25 31 34 35 38 37 38 33 33 34 36 34 35 34 29 28 28 29 28 31 32 29 28 30 31 35 42 42 39 38
19 18 18 18 20 20 21 19 21 20 20 20 20 20 21 20 20 19 19 19 19 20 20 20 21 22 21 19 20 21 22 23 22 18 19 20 21 20 22 25 29 33 34 33 32 31 30 29 28 20 25 28 30 30 29 29 26 31 38 42 38 31 23 31 33 23 35 35 33 34 37 34 34 32 31 34 36 34 31 31 34 39 44 43 42
17 18 18 19 20 21 21 20 21 21 20 20 20 22 22 20 20 18 18 18 19 20 19 20 20 22 22 21 21 23 19 18 24 19 20 21 22 23 26 24 26 31 35 33 32 32 32 33 31 23 20 23 26 28 29 29 30 29 36 27 26 26 33 36 37 36 35 34 34 35 39 39 38 33 35 36 35 34 34 38 37 41 42 42 44
18 17 16 18 20 21 21 21 23 22 21 20 20 22 21 19 18 18 18 17 18 19 19 20 19 21 22 22 22 22 22 21 16 21 20 22 24 25 26 28 23 26 32 35 34 35 33 33 32 23 23 24 25 26 27 29 24 28 27 25 26 26 24 31 34 39 38 37 36 36 34 35 36 36 34 36 38 36 37 38 37 40 40 40 39
17 16 15 17 18 19 20 20 20 19 20 21 20 21 20 19 18 17 18 18 18 19 18 18 18 19 21 24 22 21 21 22 16 20 24 25 25 26 27 28 27 25 28 31 33 36 36 33 30 22 23 28 31 30 29 26 30 24 23 27 27 25 28 29 30 36 36 37 37 38 38 37 37 37 36 34 36 36 36 35 35 36 38 39 40
16 17 16 16 18 17 18 18 19 19 20 21 21 21 19 19 19 17 18 18 18 19 19 18 19 20 21 22 23 23 22 23 24 22 23 25 27 28 28 29 28 28 31 28 28 34 28 26 28 30 30 31 31 31 28 29 32 31 29 26 25 23 25 26 28 33 40 41 39 38 38 35 38 39 36 35 32 35 34 32 31 31 34 36 35
16 16 16 16 18 19 19 18 18 19 20 21 20 19 19 19 19 19 18 18 18 18 19 20 20 21 22 23 24 26 27 26 27 27 21 22 22 23 26 28 29 30 31 34 27 32 32 32 33 32 30 30 32 30 29 32 23 26 28 26 29 34 30 31 28 30 37 40 39 41 38 34 34 32 30 31 34 37 35 37 36 36 37 38 38
15 14 15 16 16 17 17 19 20 19 19 21 20 20 19 19 18 18 18 19 19 19 19 19 21 22 22 24 25 27 28 27 28 27 27 29 31 32 35 36 28 28 30 30 24 29 33 30 27 25 26 30 32 30 30 28 30 32 31 32 34 36 35 33 34 34 33 36 36 37 36 35 33 32 34 33 35 35 33 32 36 36 35 36 38
14 14 14 14 15 16 17 12 17 19 19 20 21 21 19 19 20 19 19 19 20 20 20 20 21 22 23 24 26 27 29 29 27 26 30 33 34 35 35 34 34 33 36 33 31 32 34 23 28 30 28 27 27 26 28 29 31 30 33 32 33 33 29 22 23 33 35 36 37 37 35 34 35 35 34 35 38 37 34 36 35 34 31 34 42
13 12 13 13 14 15 16 18 19 18 18 17 18 18 19 21 20 20 17 17 18 20 22 22 20 20 21 23 25 27 29 30 27 18 34 25 34 37 36 35 35 33 27 26 35 32 28 29 27 29 27 27 25 27 28 27 28 28 29 30 32 32 32 32 34 36 36 33 35 38 39 38 38 36 35 36 36 36 34 36 36 36 33 36 37
12 13 14 13 14 16 15 17 18 18 18 18 18 19 10 11 13 17 21 15 16 16 14 20 20 19 21 21 19 24 28 35 29 31 30 30 31 31 30 33 33 36 32 32 29 31 29 28 27 26 27 27 27 27 28 26 28 28 28 21 28 30 32 31 32 34 32 33 35 36 37 37 39 40 38 38 37 36 35 28 37 35 37 39 40
12 13 14 14 14 15 15 16 18 19 19 18 18 18 20 21 14 11 11 13 14 16 17 18 18 18 18 22 23 19 22 28 30 30 30 30 29 30 31 33 36 36 34 34 28 26 24 25 25 25 26 28 27 27 26 26 26 27 29 29 29 29 27 30 33 30 29 34 34 35 35 35 37 37 39 38 38 37 36 34 37 38 41 40 41
12 12 12 13 13 13 14 15 15 17 19 19 19 18 20 20 23 14 15 14 15 15 15 15 15 16 16 18 21 27 21 23 30 32 31 29 29 31 33 35 36 35 31 25 23 23 23 24 24 25 26 26 26 26 28 28 29 29 29 28 30 29 31 32 30 31 32 34 32 31 34 35 36 35 36 36 32 37 37 38 38 38 39 40 42
13 13 13 11 12 11 13 14 15 16 17 20 19 20 20 21 21 23 25 14 15 14 12 13 14 15 17 19 18 19 25 28 29 30 31 31 31 32 34 34 30 30 25 20 21 23 22 21 23 22 24 29 30 28 28 28 31 31 31 32 31 31 31 30 26 34 33 36 35 34 33 32 32 32 29 31 33 39 38 39 40 40 38 39 37
13 13 12 12 14 14 12 12 14 15 15 16 18 19 19 19 20 21 22 23 25 17 13 14 12 12 16 17 19 24 27 29 29 28 29 31 33 33 31 29 22 22 20 23 24 24 24 24 23 23 25 27 29 29 30 32 32 33 34 35 34 34 34 34 35 35 33 32 35 34 31 34 31 35 37 38 38 37 38 35 39 41 43 45 44
14 9 9 10 16 15 13 12 12 13 15 16 16 18 19 18 19 19 20 20 22 24 24 27 18 14 23 17 17 23 25 27 26 26 27 29 32 33 27 27 29 28 26 23 23 24 24 23 23 24 24 28 29 28 31 32 33 33 33 35 36 37 36 35 34 34 35 34 34 33 32 33 34 34 34 35 34 35 36 37 38 38 39 40 41
13 15 12 18 18 14 13 13 12 12 13 14 15 16 15 16 19 21 19 19 18 19 21 22 25 18 19 15 20 20 23 24 23 24 26 29 30 28 32 31 29 27 26 24 23 22 21 21 21 22 23 25 27 28 29 30 30 33 35 34 34 35 35 35 32 34 33 36 35 33 32 35 33 31 33 36 38 38 40 38 38 35 36 39 36
13 13 13 13 13 13 13 14 14 13 9 14 15 14 15 17 17 18 20 20 19 19 19 21 24 25 21 21 28 24 25 20 20 18 22 25 27 26 27 27 27 26 25 26 25 24 23 22 21 22 23 24 26 28 28 30 29 29 25 32 32 34 33 32 33 29 36 34 35 35 33 33 33 33 33 30 29 34 36 38 35 30 28 28 23
13 14 13 12 13 14 15 15 13 10 15 15 14 14 14 16 19 19 20 21 19 19 21 22 14 21 27 31 32 28 30 19 21 20 25 26 33 29 27 24 25 26 25 24 24 24 24 24 24 25 25 25 26 27 30 31 30 29 31 32 33 33 25 33 27 34 35 39 39 37 32 34 35 35 28 31 31 31 33 30 33 34 29 28 30
13 10 10 10 8 16 16 16 15 15 15 15 15 14 14 15 16 17 20 19 21 21 20 21 22 21 21 25 28 27 28 31 30 28 27 27 25 26 26 26 26 27 26 26 26 26 27 29 28 26 26 26 26 26 27 27 28 29 28 28 32 33 33 30 34 35 31 31 30 31 30 32 30 30 29 30 31 31 33 33 33 35 34 32 34
13 13 12 12 13 16 16 15 16 16 15 15 15 15 16 16 16 16 17 18 20 21 21 21 20 19 20 22 24 27 24 23 22 23 23 24 24 23 23 23 25 25 26 26 26 26 25 25 25 26 27 26 26 28 28 27 26 25 25 25 26 26 27 27 27 27 27 25 27 28 29 28 31 30 28 30 30 32 33 34 33 32 35 33 33
13 13 8 11 10 14 14 16 16 16 15 16 16 16 16 16 16 16 17 17 17 19 20 19 20 20 17 20 21 22 19 20 21 21 21 22 21 21 22 22 23 22 22 23 23 21 21 23 23 24 24 24 25 26 27 27 27 26 25 25 24 23 24 25 26 26 27 26 29 28 27 27 29 30 30 28 21 27 31 30 30 32 30 30 32
14 14 14 13 14 16 14 15 16 16 16 16 18 17 16 16 16 17 17 18 18 18 18 18 18 19 16 20 19 21 18 19 19 20 20 21 21 21 20 19 19 20 21 22 23 24 22 21 22 22 24 25 25 25 25 26 26 26 26 25 24 23 24 23 23 22 23 25 24 23 23 24 26 27 29 18 27 28 28 29 29 27 25 27 26
15 16 16 14 15 14 15 16 16 17 17 17 17 11 15 18 18 18 19 18 19 19 20 20 19 18 18 14 19 15 19 19 13 19 20 21 21 20 20 19 19 18 18 19 20 20 21 21 22 22 23 24 23 23 23 24 24 25 24 24 24 26 25 24 26 26 25 24 25 23 23 24 25 24 23 23 24 24 24 25 24 26 25 25 24
16 16 16 15 16 16 16 17 17 17 17 15 15 19 19 20 20 19 20 19 19 19 20 20 20 19 19 18 16 19 20 19 18 19 19 19 20 20 20 19 18 18 17 18 18 18 19 21 21 22 21 21 22 20 21 21 22 22 23 24 24 23 24 23 23 24 26 26 25 24 25 24 23 23 21 18 19 19 17 15 16 17 19 19 20
17 18 18 19 18 18 19 18 19 19 18 17 19 20 18 20 19 19 19 20 19 19 20 20 20 20 19 19 18 18 19 19 18 18 18 19 18 19 19 19 18 18 17 17 17 18 18 20 20 20 21 21 21 22 24 24 23 22 20 21 24 27 27 26 28 26 25 22 24 24 24 24 22 21 21 21 18 18 19 19 21 17 21 18 17
18 19 19 20 20 20 20 21 18 21 20 21 21 22 21 20 20 20 20 20 20 20 20 20 20 20 20 21 20 18 19 18 18 18 18 18 18 19 20 20 18 18 17 17 18 18 19 19 20 21 21 21 22 22 22 21 21 22 22 22 22 22 24 27 27 26 25 25 25 24 24 23 23 20 19 22 18 18 20 20 18 19 20 19 19
19 20 21 21 22 21 21 21 22 22 23 23 22 23 23 24 23 21 19 22 22 20 21 21 21 21 20 20 20 19 18 18 18 18 18 18 18 19 20 20 19 18 18 17 17 18 18 19 19 19 20 21 21 21 21 20 21 22 22 22 23 25 25 28 28 26 26 26 25 24 24 24 23 22 20 20 18 19 17 17 20 21 20 20 19
20 21 22 20 21 22 22 22 22 16 22 23 23 23 23 23 23 22 23 22 22 22 22 21 21 21 20 20 19 19 19 19 18 18 18 18 18 17 17 17 17 18 18 18 18 17 17 18 18 19 20 21 21 22 22 22 21 22 23 24 27 32 34 29 29 27 26 28 26 24 24 23 22 21 17 18 17 18 17 17 16 17 17 19 18
19 19 20 20 20 21 21 22 20 23 23 22 22 23 22 22 21 22 23 23 23 22 23 23 22 21 20 19 18 18 19 18 20 19 19 18 17 17 17 17 16 18 19 19 19 18 17 17 18 19 20 21 21 21 22 22 24 24 25 25 30 33 32 31 27 29 29 29 24 24 24 24 23 20 17 17 17 16 16 14 14 15 15 15 17
17 17 18 19 20 21 20 20 22 23 21 22 22 23 22 22 23 23 24 24 24 23 23 22 21 20 20 19 18 18 18 19 19 19 19 18 18 17 17 17 17 18 19 19 19 19 18 17 17 17 18 19 21 21 21 21 22 24 24 29 29 30 29 31 27 25 29 25 27 23 23 23 22 21 20 18 16 16 15 14 14 13 15 15 14
16 17 18 19 20 20 20 21 21 21 21 21 22 22 22 23 23 23 23 23 24 24 22 22 22 21 18 18 17 17 18 18 19 19 18 18 18 17 17 17 18 18 18 18 20 20 18 17 17 17 18 18 20 20 20 21 22 25 26 27 28 28 28 27 30 25 29 24 24 21 20 20 18 20 20 19 17 16 15 15 14 13 14 14 13
Wind_Speed
6 6 6 6 6 4 1 1 3 6 6 5 6 6 6 7 8 8 8 9 9 8 9 11 12 11 11 11 11 11 11 11 10 10 10 10 10 10 10 11 13 11 11 12 12 12 12 13 13 13 12 12 11 11 12 12 11 11 11 12 12 12 11 11 13 13 11 9 9 8 8 10 11 12 11 10 9 11 13 11 12 12 12 11 12
7 6 5 5 6 5 4 2 0 2 1 3 4 4 5 6 7 7 9 9 8 9 10 9 9 10 11 12 12 12 13 13 12 11 11 11 11 9 10 11 12 12 11 12 12 11 12 13 13 13 13 14 13 13 12 11 11 11 12 12 12 12 13 12 12 12 13 9 10 10 9 10 12 11 11 10 10 10 13 11 11 12 12 11 11
7 6 6 6 6 5 5 5 4 2 2 2 3 3 4 4 5 7 8 8 8 9 10 10 10 11 11 11 11 11 12 13 12 12 11 11 11 11 10 11 12 12 12 12 13 12 13 12 13 12 10 12 13 12 12 13 12 13 14 12 13 13 13 13 12 13 13 12 10 11 10 10 11 11 11 10 10 9 11 13 11 10 10 12 12
6 6 6 6 6 6 6 5 6 5 4 3 1 1 3 4 6 6 6 6 7 8 8 10 10 10 11 11 11 12 12 11 12 12 13 12 11 12 11 11 11 12 12 13 13 12 13 13 13 12 12 12 12 12 12 12 13 13 13 13 13 14 13 12 14 13 12 13 12 11 10 10 10 11 11 10 10 10 10 10 11 11 11 11 12
6 6 6 6 6 6 6 5 5 5 5 4 4 3 2 2 2 3 4 5 6 6 6 7 9 11 11 12 12 12 12 12 13 12 12 11 12 12 11 11 12 12 12 12 13 13 13 13 13 13 12 13 12 13 12 14 13 12 13 12 12 12 12 12 13 13 13 14 13 11 11 11 10 10 10 10 10 11 9 11 12 12 11 11 10
5 5 5 5 5 6 6 5 5 5 5 5 5 4 3 3 2 1 3 4 5 6 7 6 8 9 10 11 11 11 11 11 12 12 12 12 11 11 11 11 12 12 12 13 13 13 13 14 13 13 13 13 13 13 13 15 14 14 14 13 13 12 12 13 13 13 14 14 14 13 12 12 12 11 11 10 10 10 10 10 11 11 12 11 11
5 4 4 4 5 5 6 6 6 6 5 5 5 5 5 5 4 3 2 3 3 3 4 6 6 8 8 8 9 10 9 9 10 11 11 11 11 11 11 11 11 10 11 12 13 13 13 13 13 13 14 14 14 13 13 14 13 15 14 14 13 13 12 12 12 13 13 13 14 13 13 11 11 12 11 11 10 10 11 9 9 10 11 12 12
6 6 5 5 4 5 5 6 5 6 6 6 5 5 5 5 5 5 5 4 3 3 3 4 5 6 7 7 8 7 7 9 12 10 10 11 10 11 11 11 11 12 11 12 11 12 12 13 13 13 13 13 14 13 13 13 12 12 12 12 13 13 13 12 12 12 12 12 12 12 11 11 11 11 10 10 10 12 10 10 12 11 12 11 13
6 6 6 5 5 5 4 5 5 5 5 6 6 6 6 5 6 6 5 5 4 5 5 5 5 6 6 6 7 7 8 9 8 8 9 10 10 11 11 11 11 11 12 12 12 12 12 12 12 13 13 13 14 12 12 10 9 10 10 12 13 14 13 12 12 11 11 10 11 11 11 11 11 10 10 11 12 13 8 10 11 8 10 11 11
7 6 6 6 5 6 5 4 5 5 5 6 6 6 6 6 6 6 6 5 5 5 6 6 7 7 7 7 6 6 6 6 5 1 4 6 9 8 8 10 11 11 11 12 12 13 13 12 12 13 12 11 10 11 12 13 12 10 10 10 11 13 13 13 12 11 10 11 13 11 12 12 11 12 12 11 11 10 10 8 10 8 9 12 11
7 6 6 6 6 6 5 5 5 5 5 5 5 6 6 6 6 7 6 6 6 6 6 7 7 7 8 8 7 6 6 3 8 5 7 8 6 9 10 10 10 10 10 11 11 12 12 13 13 13 12 12 13 15 14 13 14 16 17 17 14 12 10 12 12 12 12 13 13 12 12 13 13 12 12 12 11 13 13 11 12 10 11 12 13
7 7 7 6 6 7 6 6 6 5 5 6 6 6 6 6 6 6 6 7 6 6 7 8 8 7 7 8 8 8 7 4 1 1 2 3 2 4 8 9 9 10 10 11 10 11 11 11 11 11 11 13 13 13 16 19 19 18 19 19 18 19 17 14 13 14 14 14 14 13 12 12 13 12 12 13 12 12 12 12 13 12 12 13 13
7 7 7 7 7 7 6 6 6 6 6 6 6 7 7 7 7 7 8 8 8 9 8 8 8 8 8 9 9 9 9 3 4 4 3 2 1 4 7 9 9 10 10 11 11 11 10 11 10 10 10 12 11 14 14 12 17 22 21 20 22 22 21 22 21 17 14 14 14 15 14 13 14 13 13 13 11 13 12 13 14 14 12 13 13
6 7 7 7 7 7 7 6 6 6 6 6 6 7 8 8 8 8 8 9 9 10 10 11 11 11 10 10 9 9 10 3 4 2 3 3 1 3 8 9 9 11 11 11 10 11 11 11 11 10 10 11 12 13 13 15 14 11 13 13 14 17 20 23 23 24 20 15 16 17 16 15 15 14 13 12 14 14 14 14 14 15 15 16 14
6 7 7 7 8 8 8 7 6 6 7 7 7 8 8 8 9 9 8 9 9 10 10 10 10 10 11 11 10 9 8 4 2 3 3 4 4 5 8 8 9 10 11 11 12 13 13 12 13 13 13 13 12 12 14 15 14 14 15 14 13 15 15 15 16 15 15 14 16 20 22 19 18 14 15 13 14 14 13 14 14 14 13 13 11
8 8 8 8 9 8 8 8 7 7 7 7 8 8 8 8 9 9 9 9 9 9 9 10 11 11 11 11 11 11 9 5 3 5 5 5 5 7 8 9 10 11 11 12 12 12 12 12 13 13 14 14 15 15 13 14 17 18 18 18 17 15 15 15 16 17 17 17 18 20 21 22 20 18 13 9 14 13 6 8 11 13 12 12 14
8 8 8 9 9 8 8 8 8 8 9 8 9 9 9 9 9 8 9 9 10 10 10 10 9 10 11 11 11 11 10 7 6 6 5 5 5 7 8 8 9 10 10 10 11 12 12 13 13 13 14 15 15 15 15 11 15 19 19 19 18 17 16 14 16 20 21 22 23 22 22 22 22 22 22 22 12 8 9 10 12 12 14 13 12
8 8 8 8 8 8 8 8 9 9 9 9 10 9 9 9 9 8 9 9 10 10 10 10 10 10 11 11 10 11 11 8 1 3 5 7 6 8 8 8 9 9 10 10 10 10 12 12 13 14 15 16 16 16 16 13 15 18 18 19 20 19 18 16 13 12 20 23 24 25 24 22 22 23 22 21 20 11 8 12 14 10 9 11 13
8 8 8 8 7 7 7 7 8 8 9 9 9 10 9 8 8 7 8 8 9 9 8 9 9 9 10 11 11 11 11 12 11 10 7 6 5 7 8 8 8 9 9 9 9 10 11 11 14 15 16 16 18 16 15 10 13 18 18 18 19 20 18 17 17 18 15 12 13 14 15 17 17 15 15 22 22 19 13 13 14 12 13 11 12
8 7 7 7 6 6 5 6 8 9 9 9 9 9 8 8 7 7 8 7 8 8 8 8 10 9 9 10 9 9 10 10 7 4 4 5 6 6 8 8 9 10 10 11 11 11 11 12 12 14 16 18 18 19 20 21 15 18 19 18 19 20 17 17 18 17 18 19 17 14 14 15 15 14 13 15 16 16 15 15 16 16 14 13 16
8 8 7 7 7 7 6 6 8 8 8 9 9 9 8 8 8 8 8 7 7 8 9 9 9 9 9 9 8 8 8 9 8 3 2 0 1 2 7 8 9 10 11 12 11 12 12 12 11 12 11 10 11 14 16 17 17 15 19 22 20 17 15 15 18 16 18 19 17 17 16 14 15 14 13 14 16 17 16 17 17 19 18 22 17
7 8 8 7 7 7 6 7 7 7 8 8 9 9 8 8 7 8 7 8 9 9 8 8 8 8 8 8 8 8 8 8 8 3 8 6 5 2 6 9 9 10 11 11 12 12 12 12 13 13 15 16 16 16 15 13 15 11 15 17 21 21 19 19 19 18 17 16 16 17 17 16 15 16 16 17 16 15 18 17 17 19 18 19 18
7 7 7 7 6 6 6 7 7 7 7 8 9 9 9 8 8 7 8 8 8 8 8 7 8 8 7 6 6 6 6 7 1 5 4 6 3 1 3 8 10 10 10 12 12 13 13 14 15 18 16 15 15 16 18 20 15 13 15 14 16 19 17 14 17 18 18 18 18 17 17 16 15 15 15 15 15 16 17 18 19 18 17 17 19
6 7 6 6 6 5 6 5 7 7 8 8 8 8 9 9 8 7 7 7 7 8 7 7 8 8 8 7 6 6 6 6 3 4 2 3 3 4 6 6 6 8 12 14 14 14 14 13 13 16 19 22 24 24 24 22 17 20 17 16 16 14 10 12 13 16 18 18 18 18 18 17 17 17 16 15 15 15 16 16 16 18 18 17 18
6 6 6 6 5 5 5 5 6 6 7 7 7 8 9 9 8 8 7 7 7 7 7 7 7 8 8 8 7 7 7 7 8 3 3 6 4 6 7 10 13 13 13 13 13 14 15 20 22 23 23 23 24 24 22 23 25 24 24 22 17 11 11 11 13 14 18 20 20 18 18 17 17 17 16 16 15 14 15 14 15 14 15 17 17
6 6 6 5 5 6 5 5 5 5 6 6 6 6 7 8 7 7 7 7 7 7 8 7 8 8 8 8 8 8 8 8 8 8 8 10 12 12 12 12 13 12 13 17 20 22 22 23 23 22 21 18 14 13 12 14 18 21 22 20 14 16 15 15 13 12 15 17 19 20 18 16 15 15 15 16 16 16 15 16 17 14 13 15 17
6 5 5 5 5 5 5 6 5 4 5 5 5 6 6 7 7 6 6 6 7 8 7 8 7 8 8 8 8 9 9 8 8 8 8 10 12 13 12 13 13 14 13 11 12 13 16 15 15 17 19 23 23 24 23 20 18 16 14 15 16 17 17 16 16 16 16 16 17 17 17 16 16 16 16 15 15 16 15 15 16 16 14 14 16
5 5 5 4 4 5 4 1 4 4 4 4 5 5 6 6 6 6 6 6 7 6 7 7 7 8 8 9 9 9 9 8 8 9 10 13 13 13 13 13 13 13 13 13 14 15 16 17 16 14 14 13 12 10 10 11 12 13 15 15 15 16 17 19 18 17 17 17 18 18 16 15 17 17 16 16 17 17 17 16 17 16 15 16 16
5 5 4 3 3 4 4 3 4 3 3 3 3 4 6 6 6 6 5 5 5 5 6 6 6 7 7 8 9 9 9 9 8 12 12 12 13 15 13 12 14 13 14 17 16 14 13 12 12 12 11 11 10 9 10 11 11 12 13 13 13 13 14 14 14 16 17 15 16 18 19 18 19 17 17 17 17 16 15 17 18 18 16 17 18
5 4 3 3 3 4 4 3 3 3 3 4 4 3 6 5 2 3 4 3 4 7 6 5 6 6 7 7 7 8 9 11 14 15 15 16 16 15 16 18 17 17 19 22 16 12 11 11 10 10 10 9 10 10 10 10 10 11 11 12 11 13 13 13 13 15 14 15 15 16 16 17 18 19 18 18 17 17 17 17 18 17 17 18 19
4 3 2 2 3 5 4 3 4 4 4 4 4 5 5 6 11 8 6 6 7 7 8 9 10 9 7 8 8 7 9 9 10 13 16 16 15 16 16 17 18 17 17 14 11 9 10 10 10 9 10 9 10 11 11 11 11 11 12 12 12 13 12 14 14 14 14 14 14 16 16 15 15 15 17 17 17 17 17 16 16 17 19 19 19
4 4 3 3 2 3 5 3 4 4 4 4 4 5 4 6 1 11 11 8 9 9 9 9 9 9 9 9 8 9 9 10 12 15 16 16 16 16 16 17 17 17 16 15 7 9 9 9 10 9 9 10 10 10 10 11 11 11 12 12 12 12 12 14 14 15 14 14 14 14 15 16 16 16 16 15 14 16 17 17 17 18 13 17 20
5 5 5 4 4 3 4 3 4 4 4 4 5 4 5 5 5 6 2 10 9 9 8 11 10 10 10 9 10 10 13 15 16 15 15 15 16 16 17 18 16 15 13 8 8 9 10 9 9 9 8 9 9 9 10 11 11 12 13 14 14 14 15 16 15 15 15 17 17 16 14 14 14 14 14 14 15 16 16 17 17 17 17 19 18
5 5 4 4 5 5 4 3 4 4 3 4 4 5 5 5 6 6 6 6 4 6 12 12 10 10 12 11 8 9 9 12 14 16 16 16 17 19 17 14 18 15 9 10 10 11 10 10 10 10 10 9 9 9 9 9 10 10 12 13 14 15 16 17 17 17 15 14 15 15 15 17 13 15 17 18 17 16 17 15 16 17 17 19 19
5 5 7 7 6 5 4 4 4 3 4 4 5 5 5 4 5 6 6 6 6 7 7 2 9 11 4 7 5 6 10 10 11 13 15 14 16 19 22 8 8 6 7 9 9 9 10 10 10 10 10 11 10 10 10 10 10 11 11 11 12 12 13 14 16 17 17 16 16 15 14 14 15 15 15 14 14 15 16 15 17 17 17 17 19
5 5 3 9 7 5 4 4 4 4 4 5 6 5 4 5 4 5 5 6 6 7 6 5 5 1 3 7 6 8 9 10 13 14 12 12 13 18 9 10 9 9 10 11 10 9 9 9 9 9 10 10 10 10 10 11 11 11 12 13 13 13 13 13 13 14 15 17 17 17 17 16 15 14 15 17 19 18 16 16 17 15 17 18 17
4 4 4 4 4 4 4 4 5 4 4 6 6 5 5 5 5 6 6 6 6 6 6 6 6 6 4 3 5 10 9 13 15 14 10 10 14 10 9 9 10 10 10 10 10 10 10 9 9 9 9 9 10 10 10 11 11 11 12 12 12 13 12 12 14 13 13 13 15 17 17 15 13 12 14 14 14 17 18 17 16 12 12 15 13
4 4 4 4 4 5 5 5 4 3 6 6 5 5 5 5 5 6 6 6 6 7 6 6 6 7 7 6 7 8 10 12 13 10 6 5 5 10 9 9 10 9 9 9 9 10 10 10 10 10 10 9 9 10 10 10 10 11 11 12 12 11 13 13 13 13 14 13 13 13 13 14 16 17 13 11 12 13 14 14 15 14 13 15 13
5 7 6 2 5 6 6 6 6 6 6 6 6 6 6 6 6 6 6 6 6 6 7 6 7 6 6 6 7 9 10 9 8 8 7 7 8 9 11 10 10 9 9 9 9 9 9 10 10 10 9 9 10 9 9 10 10 11 11 12 12 12 12 10 11 11 11 10 11 11 11 11 12 12 13 14 14 13 15 15 16 16 16 13 14
5 4 7 10 6 7 5 6 6 6 6 6 6 6 6 6 6 6 6 6 7 7 7 7 7 7 5 5 6 7 8 9 8 7 7 7 7 7 7 9 9 9 10 10 9 9 9 9 9 10 10 10 10 10 10 9 10 10 11 10 11 12 12 11 11 11 11 10 10 11 11 11 11 10 12 13 14 15 15 14 13 12 14 15 14
4 4 2 8 7 6 6 7 7 6 6 6 6 6 6 6 7 7 7 7 7 7 7 7 7 7 6 1 4 2 6 8 8 7 7 7 7 7 6 6 8 9 9 9 9 9 9 10 10 10 9 9 9 9 10 10 10 11 11 11 10 9 11 11 11 11 12 11 10 11 12 12 12 12 12 12 12 14 14 14 15 15 14 11 14
5 5 5 4 6 6 6 6 6 6 7 7 7 7 6 6 6 7 7 8 8 8 8 7 7 8 1 10 6 8 7 8 7 7 7 6 7 7 6 6 6 7 8 8 9 9 9 9 10 9 9 10 9 9 9 9 10 10 11 11 10 10 10 10 10 11 11 11 11 11 11 12 13 13 14 14 13 12 13 13 12 12 12 13 11
7 6 6 6 6 6 6 6 6 6 6 7 7 7 7 8 8 8 8 8 8 8 8 8 8 7 5 7 9 9 8 8 7 7 7 6 6 7 7 6 5 5 6 6 7 8 8 9 10 10 9 10 10 9 9 10 10 10 10 10 11 11 10 10 10 10 10 11 11 12 13 12 12 12 11 10 10 11 11 11 11 13 13 13 12
7 7 7 7 7 7 7 7 7 7 7 7 8 8 9 9 9 9 9 9 8 8 8 8 8 8 8 7 6 8 7 7 7 7 7 7 7 7 7 6 5 5 5 5 5 5 6 7 8 9 9 10 10 10 10 9 9 9 10 10 11 11 11 11 11 11 11 12 12 12 12 12 11 11 10 9 9 9 7 6 7 8 8 8 9
7 8 8 8 8 8 8 8 8 8 9 8 8 8 8 8 8 8 8 8 8 8 8 9 9 8 8 8 7 7 7 7 7 7 7 7 7 7 7 6 6 6 6 6 5 5 6 6 7 7 8 8 8 9 9 9 9 9 9 9 10 11 12 13 14 12 12 11 11 11 11 11 11 10 9 9 7 7 5 5 6 7 5 4 4
8 8 9 9 9 9 9 9 9 9 9 9 9 9 9 9 9 9 9 9 9 9 9 9 9 9 9 9 8 8 8 7 7 7 7 7 7 7 7 7 7 7 6 6 6 6 6 6 7 7 7 8 7 8 9 9 9 9 9 9 10 10 11 13 13 13 12 12 12 11 12 12 11 9 10 10 8 6 5 5 5 7 6 5 5
9 9 9 10 10 10 10 10 10 10 10 10 10 11 10 10 10 10 10 10 10 9 9 9 9 9 9 9 8 8 8 7 7 7 7 8 8 8 7 7 7 7 7 7 7 6 6 6 6 7 7 7 8 8 8 8 8 8 8 8 8 8 10 13 13 13 12 13 12 11 12 12 11 10 10 10 9 7 6 6 6 6 7 7 7
9 9 10 10 10 10 10 10 10 10 10 11 10 11 11 11 10 10 10 10 10 10 10 9 9 9 9 9 8 8 8 8 7 8 7 7 7 7 7 7 7 7 8 8 8 7 6 6 6 6 7 7 7 8 7 7 7 7 8 7 6 8 15 18 14 13 12 13 13 13 13 11 10 10 8 7 8 9 8 8 7 7 6 6 6
8 8 9 9 9 9 9 9 9 10 10 10 10 11 10 10 10 10 10 11 11 10 10 10 10 9 9 8 8 8 8 8 8 8 7 7 7 7 7 7 7 8 8 8 8 8 7 7 6 6 7 7 7 7 7 7 7 6 7 7 10 20 22 21 16 12 17 13 11 12 12 12 11 11 9 7 7 7 6 6 6 6 6 5 5
7 7 7 8 8 8 8 8 9 9 9 9 9 10 10 10 10 11 11 11 11 11 10 10 10 9 9 8 8 8 8 8 8 8 8 7 7 7 7 7 8 8 8 8 8 8 8 7 7 6 6 6 7 7 7 7 7 6 6 9 18 21 21 23 21 19 15 11 12 11 11 12 12 10 10 8 8 8 8 7 7 5 5 6 6
6 6 6 7 7 7 7 7 8 8 8 8 9 9 9 9 10 10 10 10 11 11 10 10 10 9 9 8 8 8 8 8 8 8 8 8 7 7 7 7 8 8 8 8 8 8 8 7 7 6 6 5 7 6 6 6 5 6 11 17 17 17 20 19 15 18 22 16 11 9 9 10 9 10 10 9 8 7 8 8 8 7 6 6 5
Wind_Direction
29 34 35 38 40 35 43 302 246 232 223 223 234 239 246 247 249 251 253 254 254 257 253 251 250 244 237 234 233 234 236 231 226 227 230 232 231 232 234 231 233 233 234 235 234 233 232 234 236 235 232 237 240 236 235 235 233 236 240 241 244 237 235 240 251 255 256 254 253 256 240 237 223 224 214 205 177 185 200 201 194 192 195 200 191
14 16 26 32 29 34 31 19 347 13 314 233 238 247 251 252 251 246 243 247 248 247 244 243 249 250 248 244 237 237 235 231 229 232 231 228 229 229 230 231 232 235 236 238 237 238 235 237 238 237 233 233 235 237 236 233 232 232 233 235 237 240 231 238 244 251 259 256 256 247 246 236 242 223 234 214 200 185 200 203 200 194 197 198 199
3 6 12 17 20 26 30 32 28 30 43 42 359 289 263 272 276 260 246 242 240 240 241 241 239 240 241 242 244 242 241 242 239 235 233 230 230 227 227 229 231 232 235 238 243 245 243 239 241 241 240 238 237 237 240 242 238 236 236 234 235 238 240 233 239 248 253 255 257 256 246 242 240 242 237 232 224 207 203 206 204 200 201 199 202
1 3 4 10 13 18 26 32 29 30 46 46 32 293 271 242 231 248 262 262 249 242 243 242 236 237 238 240 240 243 247 247 244 239 240 236 232 230 224 224 226 231 236 238 240 245 250 249 245 243 242 243 237 235 236 238 242 245 243 238 238 239 239 239 238 243 247 255 251 253 256 250 246 239 242 243 230 224 229 220 212 209 206 204 204
4 2 2 359 10 11 15 17 24 24 17 22 27 31 15 312 303 276 250 244 249 256 254 254 249 241 238 239 240 241 243 245 247 242 240 241 240 238 233 226 224 225 228 234 238 242 243 245 249 246 242 243 241 238 234 237 239 240 243 244 243 239 239 238 240 239 243 247 251 254 256 256 257 257 252 247 232 235 224 237 229 228 219 210 213
2 10 6 358 1 3 4 3 6 7 6 8 360 356 353 3 1 324 295 277 253 242 239 235 244 246 247 244 242 241 240 242 246 247 242 239 238 241 241 240 234 229 226 227 234 236 240 242 242 243 244 243 244 241 241 239 237 238 239 241 243 243 243 243 241 243 244 246 250 252 249 252 254 252 250 248 245 240 225 222 237 234 230 226 225
12 11 14 7 358 358 352 357 354 351 353 353 351 350 350 346 334 349 336 332 310 289 267 254 237 247 248 249 251 249 253 256 253 252 254 248 243 239 238 241 245 245 242 235 232 234 240 242 243 244 245 246 245 245 243 243 242 240 238 240 244 244 247 245 244 243 244 248 250 251 253 250 252 254 246 244 243 239 246 226 217 234 237 234 231
13 16 14 13 6 359 352 346 345 344 341 337 341 344 339 337 336 333 333 325 322 309 303 294 283 262 255 245 244 245 244 248 251 249 249 251 252 249 248 247 247 244 244 245 244 243 242 242 242 242 244 245 248 246 245 247 247 247 243 243 239 240 241 242 241 243 243 246 249 251 247 250 248 245 248 246 244 239 236 245 240 232 239 236 234
16 14 15 17 7 360 354 348 336 339 334 338 333 337 331 329 325 322 319 311 316 314 306 299 282 268 259 254 251 245 240 239 244 245 246 247 247 252 252 250 249 252 253 252 250 248 246 245 245 245 246 247 245 243 244 246 245 245 243 247 247 241 240 239 243 239 242 248 248 246 250 248 246 247 241 235 233 240 228 238 241 214 240 246 235
13 8 14 12 1 1 356 351 343 336 340 331 335 329 324 325 321 313 308 308 306 307 303 295 289 281 276 266 255 253 252 246 231 171 302 296 271 262 259 258 255 252 252 251 252 253 253 250 247 247 255 256 252 255 259 262 259 253 250 241 245 254 245 243 243 241 240 241 244 243 243 243 243 240 242 238 234 236 229 231 241 227 230 249 242
9 9 7 4 360 358 357 352 343 344 342 330 328 326 324 323 312 308 310 311 305 296 288 286 284 285 283 281 276 270 265 264 51 23 7 3 330 287 273 271 268 264 258 256 256 254 253 252 253 246 236 234 239 242 249 253 259 263 263 261 256 254 262 256 254 251 244 242 245 240 241 246 244 244 243 243 232 232 233 229 234 233 237 243 244
7 10 2 359 1 357 354 348 348 342 329 335 329 325 318 309 309 308 307 304 301 301 291 281 279 277 275 274 272 266 262 269 8 289 306 7 7 300 281 277 277 270 266 262 260 260 260 260 258 256 252 249 250 234 225 229 237 241 248 256 259 262 257 254 257 256 250 246 245 242 245 243 245 243 241 239 233 228 227 229 233 229 231 240 247
8 9 1 2 359 355 348 349 348 343 342 336 334 322 320 314 307 307 301 300 293 282 283 289 285 280 272 270 268 266 264 221 200 227 267 298 19 291 267 263 268 272 275 273 272 271 269 264 263 259 262 257 252 254 258 240 220 229 233 234 241 242 246 250 251 251 267 267 255 249 241 245 246 242 242 244 240 237 222 225 230 230 229 235 241
8 5 360 1 355 353 347 347 344 346 334 333 331 325 319 316 313 303 297 294 290 286 284 277 274 273 274 274 272 268 266 234 180 189 231 259 269 285 273 270 265 264 264 267 269 271 271 273 273 269 262 258 256 258 257 256 258 231 222 228 234 235 235 238 242 247 247 253 262 260 254 247 247 245 241 239 239 236 228 226 220 223 224 227 228
5 5 357 355 353 350 346 345 341 341 330 335 333 325 322 316 311 308 303 298 293 291 287 282 277 275 275 274 276 278 273 287 207 217 250 268 281 269 273 264 262 259 260 259 260 261 263 265 266 268 271 272 272 274 269 266 262 260 256 245 229 231 231 226 226 228 230 229 240 251 255 258 257 255 255 249 245 242 234 231 224 219 223 227 229
2 3 354 355 351 348 344 341 339 335 334 331 331 329 326 319 312 311 308 304 300 298 296 290 284 279 275 275 273 274 277 276 240 225 241 260 268 270 265 257 253 255 255 256 256 257 258 259 262 264 265 266 265 265 265 270 270 271 268 265 263 258 252 241 223 221 227 230 229 236 241 245 253 257 258 260 259 250 242 290 264 237 225 223 234
357 356 351 351 347 344 341 339 340 337 336 332 332 333 329 323 318 315 309 304 301 298 294 290 290 288 286 280 277 274 277 266 213 223 221 242 263 276 272 266 261 257 256 257 257 256 255 255 257 262 262 262 260 256 256 247 260 262 264 265 265 265 264 261 227 218 221 225 235 236 238 242 244 249 258 268 270 288 268 245 249 237 229 228 229
352 351 348 347 343 340 341 340 342 343 337 336 334 330 327 323 320 320 314 310 304 301 299 296 288 282 278 278 277 281 281 286 322 199 214 222 254 288 286 283 282 279 275 268 266 266 264 260 262 264 265 264 261 255 251 241 252 257 258 260 260 259 259 259 261 232 216 226 226 230 233 237 242 248 250 251 256 257 256 246 247 248 242 237 236
346 348 345 343 339 339 341 343 341 338 335 337 333 329 328 327 323 321 314 308 302 299 300 297 296 295 292 288 297 292 279 282 271 249 228 208 223 285 277 282 282 280 282 277 273 272 268 259 244 247 257 264 272 277 277 268 263 260 261 260 259 257 254 256 252 255 251 232 229 235 242 243 245 244 243 243 243 243 237 244 245 241 244 236 241
342 341 342 339 336 340 343 343 344 341 341 339 337 333 329 325 324 319 312 308 307 309 304 298 296 293 291 289 284 284 284 283 292 95 163 185 217 286 294 288 287 289 286 285 284 278 275 273 267 244 238 249 256 259 261 263 262 268 269 264 262 261 261 257 253 256 258 257 255 234 222 224 227 223 229 236 238 233 234 234 238 237 233 243 246
340 340 339 338 342 346 341 349 346 345 348 346 340 336 333 326 323 320 317 312 308 306 304 303 302 298 295 293 290 286 286 289 289 309 311 345 92 255 297 296 298 299 299 296 290 288 286 280 278 275 272 266 261 266 269 269 266 264 263 261 261 275 298 283 273 264 261 260 256 255 252 242 237 232 228 230 234 237 228 223 230 237 239 244 238
335 337 342 340 345 339 340 351 348 349 349 347 343 341 341 331 326 324 319 317 314 310 312 310 308 306 303 300 294 291 283 266 290 318 87 78 86 28 307 303 319 310 298 290 288 282 280 282 277 287 306 305 299 289 277 266 265 262 262 270 281 281 276 274 276 276 273 270 263 256 252 246 245 239 237 239 237 233 236 228 218 225 231 235 239
334 334 338 330 340 335 338 351 353 356 349 347 349 348 347 340 336 331 327 325 321 319 317 318 317 316 314 310 308 304 304 299 198 301 37 76 68 244 256 277 307 291 290 291 289 285 281 282 284 291 299 305 302 298 297 296 286 265 266 267 267 273 278 269 265 264 262 262 262 262 258 253 246 241 238 236 230 228 231 231 231 224 221 228 233
330 329 329 331 340 337 342 348 359 358 350 348 350 351 355 350 343 342 337 330 328 324 326 327 325 323 322 321 319 316 313 311 325 87 59 143 217 279 303 308 311 297 297 289 284 283 281 276 296 318 316 304 296 290 284 277 272 279 279 270 267 265 263 266 264 261 257 257 255 254 253 251 252 250 246 245 244 236 235 235 230 227 229 227 228
331 326 333 338 341 343 347 353 356 3 354 354 352 354 354 356 352 352 345 340 336 332 328 329 324 324 322 321 326 324 327 325 318 330 119 116 55 7 340 315 298 281 280 281 279 282 291 300 295 284 280 278 275 274 273 268 265 266 264 258 254 257 251 252 258 261 261 255 252 253 254 251 251 252 252 250 247 244 242 241 235 223 229 231 231
328 325 335 336 344 349 343 7 347 5 359 357 359 358 356 355 356 351 349 343 341 335 332 330 327 326 325 326 327 326 325 324 320 325 331 346 334 335 322 298 285 277 262 271 264 266 265 263 267 267 266 266 270 269 264 266 258 251 251 252 249 252 251 254 250 247 254 262 261 256 256 261 258 257 253 249 249 247 245 243 241 231 221 233 238
320 321 335 331 341 355 336 14 335 1 357 356 3 358 1 360 2 360 350 346 339 336 331 330 328 329 327 329 327 327 326 324 326 327 343 336 329 327 321 320 313 295 299 302 297 293 295 294 291 291 285 281 275 269 268 270 269 263 254 250 251 249 249 247 248 249 250 252 258 264 264 261 260 260 256 254 248 244 242 246 245 242 233 230 228
315 324 325 325 337 344 339 6 297 355 349 349 348 1 6 2 5 8 3 358 340 330 330 327 328 325 326 326 325 327 326 327 332 354 340 327 325 321 322 318 319 324 312 311 312 305 298 292 285 282 284 277 270 271 263 260 250 248 252 254 251 247 243 241 244 250 253 254 254 252 254 258 260 257 255 251 249 247 244 243 243 242 234 234 235
283 296 311 311 342 332 325 347 356 337 346 332 344 3 5 358 1 4 41 7 356 336 333 322 318 322 321 319 321 324 321 325 347 1 330 318 310 315 317 320 319 312 309 305 299 300 298 295 298 295 290 283 282 278 276 274 270 265 259 254 256 257 257 254 248 247 250 250 253 256 258 254 252 251 252 253 250 251 246 246 242 243 238 233 235
277 274 316 316 354 325 325 339 352 337 350 346 335 343 153 192 314 330 355 83 202 248 257 301 325 329 328 321 327 318 319 317 325 320 314 311 304 294 292 292 293 298 299 295 290 298 307 309 306 301 295 291 289 285 276 277 288 293 289 281 272 268 267 266 265 262 259 253 252 254 253 255 257 255 251 250 252 249 246 244 247 244 242 239 239
284 281 288 334 13 314 309 330 338 331 337 337 337 334 332 173 191 215 215 249 269 258 245 251 261 267 289 329 337 305 269 279 298 308 308 306 303 301 300 301 302 300 296 303 314 317 322 322 322 313 296 284 279 287 288 278 275 277 281 282 279 276 268 266 265 265 263 262 259 257 256 254 253 252 251 251 251 250 250 243 241 243 245 246 247
288 298 297 328 285 291 317 316 316 322 332 339 336 337 325 336 309 190 209 232 236 230 235 243 245 249 256 262 292 317 329 323 312 309 310 308 310 309 305 303 298 297 298 290 306 326 326 322 322 317 313 308 304 307 303 298 290 286 285 285 283 280 278 274 270 268 263 259 257 252 254 254 253 254 254 253 252 254 252 251 246 245 239 245 249
278 287 296 284 286 292 289 313 312 320 326 329 331 335 332 337 329 336 232 194 214 242 233 224 228 234 236 241 247 264 284 298 303 308 311 313 310 308 304 296 285 273 278 321 354 337 341 331 327 325 327 324 322 324 322 316 313 308 302 297 292 288 285 283 281 274 272 271 266 264 257 252 250 254 254 252 250 250 249 250 251 250 250 249 247
261 275 294 310 303 297 297 307 315 315 321 324 324 321 326 329 331 317 307 325 296 217 211 210 220 221 221 229 247 260 273 290 305 309 315 315 314 306 307 295 279 251 240 341 343 347 342 339 333 332 330 327 326 325 320 318 316 315 313 310 311 308 302 293 285 279 275 268 261 259 259 260 258 250 247 248 248 250 252 250 250 250 249 250 253
265 227 203 261 286 283 284 294 303 308 315 314 313 313 317 321 314 312 322 317 319 323 336 251 197 204 294 326 317 280 287 291 299 303 301 307 305 306 298 301 342 356 348 356 344 342 338 333 334 331 332 333 335 331 328 332 331 330 325 321 317 312 309 307 304 297 285 280 278 272 267 258 257 257 258 253 251 251 248 248 252 250 250 249 250
257 280 247 195 230 258 278 283 296 297 313 315 313 298 296 306 308 314 312 309 313 324 316 315 323 292 272 262 241 279 298 308 305 298 292 284 288 293 316 358 340 351 349 355 356 342 333 330 329 327 329 329 327 328 328 326 326 323 324 322 317 314 314 309 302 303 310 308 299 290 282 277 276 265 257 256 256 256 254 252 252 253 256 257 260
278 269 262 275 280 286 287 285 279 294 309 293 283 281 298 298 301 306 307 307 319 315 303 311 322 307 278 310 355 322 320 315 301 294 276 266 255 277 355 340 346 335 346 344 348 345 338 342 336 332 330 328 328 327 325 323 322 321 321 317 316 314 312 310 303 301 292 288 288 290 288 283 276 269 268 267 259 259 260 260 259 257 254 257 262
266 280 279 287 288 279 275 275 282 241 253 259 274 286 290 299 307 297 296 306 310 299 307 317 311 306 320 332 345 343 329 297 278 275 272 307 332 348 344 341 335 335 335 339 339 339 336 336 339 338 334 331 329 328 327 324 323 323 324 323 322 319 307 303 303 309 311 310 307 301 299 301 301 298 288 271 266 265 262 252 255 256 252 242 238
252 198 213 244 257 273 283 288 280 281 283 283 286 287 288 292 292 293 301 305 301 305 308 307 311 313 317 335 333 339 324 331 338 339 334 336 335 339 341 339 335 334 332 332 336 333 336 331 332 331 331 329 328 325 324 325 325 325 324 322 319 320 321 319 316 314 312 309 308 304 300 294 289 285 287 291 289 277 267 261 256 254 254 254 251
274 281 187 196 233 227 251 255 267 271 271 279 281 289 292 287 289 298 304 299 300 304 304 303 303 307 312 319 334 333 327 323 322 329 330 324 327 326 331 332 332 329 328 327 329 329 327 330 328 326 325 324 324 323 322 318 318 321 322 321 320 316 316 318 316 315 311 310 307 305 300 297 293 292 285 272 268 271 276 273 268 256 255 254 254
279 274 208 185 234 276 254 256 260 264 275 277 282 280 284 286 285 284 286 289 295 296 293 295 294 297 305 38 130 228 301 306 308 317 323 320 321 320 325 326 324 321 322 323 323 324 321 319 320 320 320 322 320 319 320 319 318 319 321 318 316 313 313 315 316 318 315 309 303 301 300 298 299 296 292 288 284 273 264 262 262 260 256 244 245
262 270 265 264 200 223 257 263 266 264 259 259 260 267 272 275 282 286 285 287 284 284 287 288 290 290 235 149 195 208 265 291 291 304 307 313 314 313 311 307 317 317 314 316 316 316 315 312 310 309 310 311 315 313 315 313 314 315 316 316 314 313 312 312 314 314 311 311 309 303 299 297 295 293 289 282 279 277 274 267 264 262 259 256 249
258 265 267 263 259 261 268 272 273 275 277 273 273 269 269 272 275 273 271 272 276 280 281 283 288 289 278 185 194 206 256 271 287 290 295 303 305 303 302 306 305 305 303 300 305 308 307 306 306 305 305 304 305 305 305 305 308 310 311 313 314 314 312 311 314 315 315 313 312 309 302 298 303 305 306 305 296 286 275 268 261 257 257 256 256
260 258 257 258 260 262 257 262 266 266 266 266 270 270 272 272 269 268 268 270 269 271 274 278 284 287 291 277 220 225 261 283 291 294 297 291 291 296 298 294 297 295 288 284 286 289 287 292 297 302 303 301 299 300 300 299 303 303 306 309 312 313 316 318 317 316 316 313 311 310 308 305 302 304 307 309 310 302 296 292 285 276 269 261 256
252 258 261 262 258 259 259 255 256 256 255 252 250 251 243 244 251 256 259 264 261 263 267 272 274 274 275 274 276 278 283 283 284 284 282 287 291 291 291 294 293 294 294 286 278 281 287 289 293 296 299 306 307 304 302 303 301 299 299 304 307 312 316 317 319 314 309 306 311 312 310 309 310 311 313 312 313 317 328 342 343 345 343 328 307
260 260 259 260 260 260 260 265 263 264 263 262 265 266 266 262 261 257 256 255 257 261 267 269 268 269 270 271 272 272 271 276 281 283 285 282 283 287 291 293 294 293 291 291 289 281 283 290 292 292 296 299 304 312 311 305 304 305 307 307 308 313 320 322 318 311 308 313 316 313 314 314 317 320 316 313 316 328 335 360 15 14 9 9 4
256 259 261 261 262 263 264 265 267 269 272 271 270 269 267 268 269 268 261 255 259 267 266 267 269 267 265 266 266 269 271 271 273 277 279 282 282 283 283 285 290 290 289 288 290 285 280 277 283 291 295 300 300 300 307 314 314 310 309 313 310 325 333 328 318 310 312 317 312 312 319 323 325 334 331 331 326 335 351 4 10 15 16 18 14
251 257 258 261 263 266 267 267 266 258 259 263 263 267 269 272 273 268 270 266 252 244 244 249 252 256 257 259 261 262 263 265 269 272 275 275 276 278 282 283 281 284 290 290 286 285 285 288 288 291 293 296 298 302 303 305 313 314 315 312 318 335 325 322 317 315 323 320 308 315 325 328 332 332 326 331 340 340 351 4 1 11 17 20 22
257 261 266 264 269 269 275 276 278 277 278 279 279 275 275 274 271 273 272 269 266 262 262 263 263 262 261 259 259 262 265 268 268 270 270 271 275 277 277 277 279 280 281 284 286 286 285 282 284 289 292 296 301 305 303 306 308 308 316 318 331 329 324 325 323 319 317 311 314 318 326 331 335 338 332 340 346 346 350 358 7 6 9 14 17
268 269 272 276 274 273 275 277 278 281 282 281 280 280 277 274 273 273 274 276 276 274 270 269 268 265 264 263 257 254 255 257 261 266 270 273 276 279 281 281 281 284 285 285 287 289 286 285 283 283 289 297 301 299 304 306 311 320 332 334 326 324 326 326 323 325 328 326 318 318 327 330 332 341 347 344 343 347 350 353 352 3 10 15 21
265 266 269 270 274 278 278 281 285 287 287 287 287 288 283 281 281 280 280 280 282 282 281 278 276 273 267 259 256 256 254 252 252 257 262 268 271 274 277 281 284 282 283 286 288 285 285 283 285 285 289 293 292 296 303 310 312 343 331 318 318 325 327 328 327 325 322 319 311 313 327 329 334 337 347 348 343 350 349 348 355 359 3 8 2